Hourly Weather Rus'ke Pole

Today, 20 April, Tuesday

Time Temperature Precipitation Wind Pressure Humidity
00:00 +8°C° 0 mm 1 mps 738 mmHg 100%
01:00 +7°C° 0 mm 0 mps 737 mmHg 98%
02:00 +7°C° 0 mm 1 mps 737 mmHg 100%
03:00 +7°C° 0 mm 1 mps 737 mmHg 100%
04:00 +7°C° 0 mm 1 mps 737 mmHg 98%
05:00 +7°C° 0 mm 1 mps 737 mmHg 95%
06:00 +6°C° 0 mm 0 mps 737 mmHg 92%
07:00 +7°C° 0 mm 0 mps 738 mmHg 93%
08:00 +8°C° 0 mm 1 mps 738 mmHg 97%
09:00 +9°C° 0 mm 1 mps 738 mmHg 96%
10:00 +10°C° 0 mm 1 mps 738 mmHg 95%
11:00 +11°C° 0 mm 1 mps 738 mmHg 92%
12:00 +10°C° 0.8 mm 2 mps 738 mmHg 94%
13:00 +10°C° 0.7 mm 2 mps 738 mmHg 90%
14:00 +12°C° 0 mm 2 mps 737 mmHg 88%
15:00 +13°C° 0 mm 1 mps 737 mmHg 85%
16:00 +13°C° 0 mm 1 mps 737 mmHg 83%
17:00 +9°C° 0.8 mm 5 mps 737 mmHg 95%
18:00 +12°C° 0.1 mm 2 mps 737 mmHg 84%
19:00 +11°C° 0 mm 1 mps 737 mmHg 93%
20:00 +10°C° 0 mm 0 mps 737 mmHg 91%
21:00 +10°C° 0 mm 1 mps 738 mmHg 95%
22:00 +10°C° 0 mm 1 mps 738 mmHg 93%
23:00 +10°C° 0 mm 1 mps 738 mmHg 89%

Tomorrow, 21 April, Wednesday

Time Temperature Precipitation Wind Pressure Humidity
00:00 +8°C° 0 mm 0 mps 738 mmHg 86%
01:00 +9°C° 0 mm 1 mps 738 mmHg 87%
02:00 +9°C° 0 mm 1 mps 738 mmHg 87%
03:00 +8°C° 0 mm 1 mps 738 mmHg 88%
04:00 +8°C° 0 mm 1 mps 738 mmHg 89%
05:00 +7°C° 0 mm 1 mps 739 mmHg 90%
06:00 +7°C° 0 mm 1 mps 739 mmHg 91%
07:00 +7°C° 0 mm 1 mps 739 mmHg 95%
08:00 +8°C° 0 mm 1 mps 740 mmHg 96%
09:00 +8°C° 0 mm 0 mps 740 mmHg 98%
10:00 +8°C° 0 mm 0 mps 740 mmHg 98%
11:00 +9°C° 0 mm 0 mps 740 mmHg 97%
12:00 +12°C° 0 mm 1 mps 741 mmHg 95%
13:00 +12°C° 0 mm 2 mps 741 mmHg 92%
14:00 +13°C° 0 mm 2 mps 740 mmHg 91%
15:00 +14°C° 0 mm 2 mps 740 mmHg 89%
16:00 +14°C° 0 mm 2 mps 740 mmHg 86%
17:00 +14°C° 0 mm 2 mps 740 mmHg 83%
18:00 +14°C° 0 mm 2 mps 740 mmHg 87%
19:00 +13°C° 0 mm 1 mps 740 mmHg 94%
20:00 +12°C° 0 mm 1 mps 740 mmHg 94%
21:00 +11°C° 0 mm 1 mps 741 mmHg 95%
22:00 +11°C° 0 mm 1 mps 741 mmHg 96%
23:00 +9°C° 0 mm 0 mps 741 mmHg 96%

Day after tomorrow, 22 April, Thursday

Time Temperature Precipitation Wind Pressure Humidity
00:00 +9°C° 0 mm 2 mps 741 mmHg 98%
01:00 +9°C° 0 mm 3 mps 741 mmHg 100%
02:00 +9°C° 0 mm 2 mps 741 mmHg 100%
03:00 +9°C° 0 mm 2 mps 741 mmHg 98%
04:00 +10°C° 0 mm 1 mps 741 mmHg 98%
05:00 +10°C° 0 mm 1 mps 741 mmHg 97%
06:00 +9°C° 0 mm 2 mps 741 mmHg 98%
07:00 +9°C° 0 mm 2 mps 742 mmHg 97%
08:00 +10°C° 0 mm 3 mps 742 mmHg 95%
09:00 +11°C° 0 mm 3 mps 742 mmHg 94%
10:00 +12°C° 0 mm 3 mps 742 mmHg 92%
11:00 +14°C° 0 mm 2 mps 742 mmHg 91%
12:00 +14°C° 0 mm 3 mps 742 mmHg 86%
13:00 +14°C° 0 mm 5 mps 741 mmHg 84%
14:00 +15°C° 0 mm 5 mps 741 mmHg 86%
15:00 +15°C° 0 mm 4 mps 741 mmHg 86%
16:00 +15°C° 0 mm 4 mps 740 mmHg 87%
17:00 +14°C° 0 mm 3 mps 740 mmHg 86%
18:00 +14°C° 0 mm 4 mps 740 mmHg 87%
19:00 +13°C° 0 mm 3 mps 740 mmHg 93%
20:00 +12°C° 0 mm 3 mps 740 mmHg 94%
21:00 +12°C° 0 mm 2 mps 740 mmHg 93%
22:00 +11°C° 0 mm 3 mps 740 mmHg 93%
23:00 +11°C° 0 mm 3 mps 740 mmHg 94%

23 April, Friday

Time Temperature Precipitation Wind Pressure Humidity
00:00 +11°C° 0.4 mm 4 mps 740 mmHg 94%
01:00 +11°C° 0.2 mm 4 mps 739 mmHg 96%
02:00 +10°C° 0.7 mm 4 mps 739 mmHg 98%
03:00 +10°C° 0.6 mm 4 mps 739 mmHg 99%
04:00 +10°C° 1 mm 2 mps 739 mmHg 100%
05:00 +9°C° 4.5 mm 2 mps 739 mmHg 100%
06:00 +7°C° 5.3 mm 4 mps 739 mmHg 100%
07:00 +9°C° 0.4 mm 1 mps 740 mmHg 97%
08:00 +8°C° 0 mm 2 mps 740 mmHg 97%
09:00 +8°C° 0 mm 3 mps 741 mmHg 92%
10:00 +9°C° 0 mm 1 mps 741 mmHg 93%
11:00 +11°C° 0 mm 3 mps 742 mmHg 90%
12:00 +11°C° 0 mm 3 mps 742 mmHg 82%
13:00 +12°C° 0 mm 4 mps 742 mmHg 79%
14:00 +12°C° 0 mm 4 mps 742 mmHg 78%
15:00 +11°C° 0 mm 4 mps 742 mmHg 75%
16:00 +12°C° 0 mm 4 mps 742 mmHg 78%
17:00 +12°C° 0 mm 2 mps 742 mmHg 79%
18:00 +12°C° 0.4 mm 2 mps 742 mmHg 84%
19:00 +10°C° 0 mm 2 mps 742 mmHg 86%
20:00 +9°C° 0 mm 2 mps 743 mmHg 91%
21:00 +8°C° 0 mm 2 mps 743 mmHg 94%
22:00 +7°C° 0 mm 2 mps 743 mmHg 95%
23:00 +7°C° 0 mm 2 mps 744 mmHg 92%

24 April, Saturday

Time Temperature Precipitation Wind Pressure Humidity
00:00 +6°C° 0 mm 2 mps 744 mmHg 92%
01:00 +6°C° 0 mm 2 mps 744 mmHg 92%
02:00 +5°C° 0 mm 2 mps 744 mmHg 90%
03:00 +5°C° 0 mm 2 mps 744 mmHg 91%
04:00 +4°C° 0 mm 2 mps 744 mmHg 93%
05:00 +4°C° 0 mm 2 mps 744 mmHg 93%
06:00 +4°C° 0 mm 1 mps 745 mmHg 92%
07:00 +4°C° 0 mm 0 mps 745 mmHg 93%
08:00 +6°C° 0 mm 0 mps 745 mmHg 92%
09:00 +8°C° 0 mm 1 mps 746 mmHg 87%
10:00 +10°C° 0 mm 1 mps 746 mmHg 78%
11:00 +10°C° 0 mm 2 mps 746 mmHg 75%
12:00 +10°C° 0 mm 3 mps 746 mmHg 79%
13:00 +11°C° 0 mm 4 mps 746 mmHg 74%
14:00 +11°C° 0 mm 4 mps 745 mmHg 76%
15:00 +11°C° 0 mm 4 mps 746 mmHg 73%
16:00 +10°C° 0 mm 5 mps 745 mmHg 76%
17:00 +11°C° 0 mm 4 mps 745 mmHg 81%
18:00 +10°C° 0 mm 3 mps 745 mmHg 81%
19:00 +10°C° 0 mm 2 mps 745 mmHg 86%
20:00 +9°C° 0 mm 2 mps 745 mmHg 91%
21:00 +8°C° 0 mm 2 mps 745 mmHg 95%
22:00 +8°C° 0.2 mm 2 mps 745 mmHg 95%
23:00 +7°C° 0 mm 2 mps 745 mmHg 95%

25 April, Sunday

Time Temperature Precipitation Wind Pressure Humidity
00:00 +7°C° 0 mm 3 mps 745 mmHg 95%
01:00 +6°C° 0.2 mm 5 mps 744 mmHg 98%
02:00 +6°C° 0 mm 4 mps 745 mmHg 100%
03:00 +7°C° 0 mm 3 mps 745 mmHg 100%
04:00 +7°C° 0 mm 2 mps 745 mmHg 100%
05:00 +7°C° 0 mm 2 mps 745 mmHg 100%
06:00 +8°C° 0 mm 1 mps 745 mmHg 100%
07:00 +8°C° 0 mm 1 mps 745 mmHg 99%
08:00 +9°C° 0 mm 1 mps 745 mmHg 94%
09:00 +9°C° 0 mm 2 mps 746 mmHg 85%
10:00 +10°C° 0 mm 3 mps 746 mmHg 80%
11:00 +10°C° 0 mm 3 mps 746 mmHg 82%
12:00 +10°C° 0 mm 3 mps 746 mmHg 85%
13:00 +10°C° 0 mm 5 mps 746 mmHg 70%
14:00 +10°C° 0 mm 5 mps 746 mmHg 70%
15:00 +11°C° 0 mm 4 mps 746 mmHg 69%
16:00 +11°C° 0 mm 4 mps 746 mmHg 65%
17:00 +10°C° 0 mm 4 mps 746 mmHg 65%
18:00 +10°C° 0 mm 4 mps 747 mmHg 69%
19:00 +8°C° 0 mm 2 mps 747 mmHg 79%
20:00 +8°C° 0 mm 1 mps 747 mmHg 85%
21:00 +8°C° 0 mm 1 mps 747 mmHg 87%
22:00 +7°C° 0 mm 1 mps 747 mmHg 89%
23:00 +6°C° 0 mm 0 mps 748 mmHg 86%
Show more